Regional Weather Roundup
Issued by NWS

Home | Current Version | Previous Version | Graphics & Text | Print | Product List | Glossary On
Versions: 1 2 3 4 5 6 7 8 9 10 11 12 13 14 15 16 17 18 19 20 21 22 23 24 25 26 27 28 29 30 31 32 33 34 35 36 37 38 39 40 41 42 43 44 45 46 47 48 49 50
000
ASUS43 KDMX 251406
RWRIA

WEATHER ROUNDUP FOR IOWA
NATIONAL WEATHER SERVICE DES MOINES IA
900 AM CDT TUE JUL 25 2017

NOTE: "FAIR" INDICATES FEW OR NO CLOUDS BELOW 12,000 FEET WITH NO
SIGNIFICANT WEATHER AND/OR OBSTRUCTIONS TO VISIBILITY.

* - THESE STATIONS ARE NOT NWS STATIONS...THUS NOT UNDER NWS
QUALITY CONTROL.  THEY ALSO DO NOT REPORT WEATHER SUCH
AS PRECIPITATION OR FOG.

IAZ001>003-012>014-020>022-031>034-043>046-251500-
   NORTHWEST IOWA

CITY           SKY/WX    TMP DP  RH WIND       PRES   REMARKS
CARROLL *      SUNNY     73  68  83 S13       30.05S
CHEROKEE *     SUNNY     76  67  73 S14G23    29.99F
DENISON *      SUNNY     73  66  78 S10G21    30.04F
ORANGE CITY *  SUNNY     75  70  83 S13G18    29.97S
SHELDON *      SUNNY     73  66  78 S12       29.95F
SIOUX CITY     SUNNY     77  70  79 SE7       29.97S
SPENCER        SUNNY     74  65  73 S16G25    29.99F
STORM LAKE *   SUNNY     72  64  78 S20       30.01F
$$

IAZ055>058-069>071-079>083-090>094-251500-
   SOUTHWEST IOWA

CITY           SKY/WX    TMP DP  RH WIND       PRES   REMARKS
ATLANTIC *     SUNNY     75  66  73 S13       30.06R
AUDUBON *      SUNNY     73  66  78 S10       30.07S
CLARINDA *     SUNNY     75  68  78 S7G13     30.09R
COUNCIL BLFS * SUNNY     75  70  83 SE14      30.03F
CRESTON *      SUNNY     73  66  78 SE14      30.09F
HARLAN  *      SUNNY     75  68  78 S13       30.08S
LAMONI           N/A     73  68  84 SE10G17   30.10
RED OAK *      SUNNY     75  68  78 SE10      30.05S
SHENANDOAH *   SUNNY     77  68  73 S7        30.05S
$$

IAZ047>049-059>061-072>074-084-251500-
   CENTRAL IOWA

CITY           SKY/WX    TMP DP  RH WIND       PRES   REMARKS
AMES           MOSUNNY   71  69  93 SE9       30.07F
ANKENY *       SUNNY     73  66  78 SE10G17   30.09F
BOONE *        MOSUNNY   72  68  88 S9G16     30.07F
CHARITON *     SUNNY     73  66  78 SE13      30.10S
DES MOINES     MOSUNNY   74  67  78 SE12      30.08F
GRINNELL*      SUNNY     70  65  83 SE12      30.13F
KNOXVILLE *    SUNNY     72  66  83 SE10      30.09F
MARSHALLTOWN   MOSUNNY   70  66  87 S13       30.09F
NEWTON *       SUNNY     70  66  88 SE12      30.11F
PELLA *          N/A     73  65  75 SE6       30.13S
$$

IAZ004>006-015-016-023>025-035-036-251500-
   NORTH CENTRAL IOWA

CITY           SKY/WX    TMP DP  RH WIND       PRES   REMARKS
ALGONA *       SUNNY     73  68  83 S20G25    30.02S
CLARION *      SUNNY     72  68  88 S20G25    30.05F
ESTHERVILLE    SUNNY     71  66  84 S22G30    29.98F
FORT DODGE *   SUNNY     73  64  73 S14G20    30.05F
MASON CITY     SUNNY     69  64  84 S17G24    30.06F
FOREST CITY *    N/A     72  64  78 S13G20    30.04F
WEBSTER CITY * SUNNY     72  66  83 S14G21    30.04F
IOWA FALLS *     N/A     70  65  86 S17       30.08F
$$

IAZ007>011-017>019-026>030-037>042-050>054-066-251500-
   NORTHEAST IOWA

CITY           SKY/WX    TMP DP  RH WIND       PRES   REMARKS
CEDAR RAPIDS   SUNNY     68  65  90 SE12      30.13F
CHARLES CITY * MOSUNNY   68  64  88 S13       30.10S
DECORAH *      CLOUDY    64  61  88 SE5       30.14R
DUBUQUE        SUNNY     66  61  84 S15       30.16F
MONTICELLO *   SUNNY     68  63  83 SE8G16    30.14F
OELWEIN *        N/A    N/A N/A N/A MISG        N/A
WATERLOO       MOSUNNY   69  62  78 S17       30.10F
$$

IAZ064-065-067-068-078-251500-
   EAST CENTRAL IOWA

CITY           SKY/WX    TMP DP  RH WIND       PRES   REMARKS
DAVENPORT      SUNNY     69  63  81 SE9       30.18S
IOWA CITY      SUNNY     69  63  81 SE9       30.16S
MT. PLEASANT * SUNNY     71  64  76 SE10      30.15S
MUSCATINE *    SUNNY     70  63  78 SE8       30.16S
QUAD CITIES    SUNNY     70  63  78 SE6       30.16R
$$

IAZ062-063-075>077-085>089-095>099-251500-
   SOUTHEAST IOWA

CITY           SKY/WX    TMP DP  RH WIND       PRES   REMARKS
BURLINGTON     SUNNY     71  65  81 E7        30.15R
FAIRFIELD *    SUNNY     72  63  73 SE7       30.14R
FORT MADISON * SUNNY     70  64  83 SE7       30.15R
KEOKUK *       SUNNY     72  64  78 SE10      30.13S
OSKALOOSA *      N/A     71  65  82 SE6       30.13S
CENTERVILLE *    N/A     73  68  83 SE6       30.14S
OTTUMWA        SUNNY     73  65  75 SE8       30.13R
WASHINGTON *   SUNNY     70  64  83 SE8       30.16R
$$

ABBREVIATIONS USED IN REMARKS
   TC - TEMPERATURES IN CELSIUS
  WCI - WIND CHILL INDEX
   HX - HEAT INDEX
  VSB - VISIBILITY
$$





USA.gov is the U.S. government's official web portal to all federal, state and local government web resources and services.